Wind_Speed
4 4 4 3 4 4 4 4 5 4 5 4 5 5 7 7 7 7 7 7 7 6 6 7 7 8 8 8 7 7 6 6 5 5 5 5 5 4 4 4 4 4 3
4 4 3 3 3 3 4 4 4 4 5 4 5 5 6 7 7 7 7 7 6 6 6 6 7 7 8 7 7 6 6 5 5 4 5 5 5 4 4 4 3 3 3
4 4 4 3 3 3 4 4 4 4 4 5 5 5 5 6 6 7 7 7 6 6 6 6 7 7 8 7 6 5 5 4 4 4 4 4 4 4 3 3 3 3 3
5 5 4 4 4 4 4 5 5 4 4 5 6 6 6 6 6 6 7 7 6 6 6 6 7 7 7 6 6 5 5 4 3 3 3 3 3 3 2 1 1 2 2
7 6 6 5 6 5 5 4 5 4 5 6 6 6 6 6 6 6 7 6 6 6 6 7 7 7 6 5 5 5 4 4 3 2 2 3 2 2 2 1 1 1 2
9 9 8 8 7 6 5 5 6 5 5 6 6 6 6 6 6 7 6 6 5 5 6 6 6 6 5 5 4 4 4 3 3 2 2 2 2 2 2 2 2 2 2
10 9 9 9 8 8 7 7 7 6 6 6 6 6 6 7 6 6 5 5 4 5 5 6 6 6 5 4 4 4 3 3 3 2 3 3 4 3 3 3 2 2 2
9 9 9 9 9 8 8 8 7 6 6 6 6 5 6 6 6 5 4 4 4 4 4 4 4 4 3 2 2 3 3 4 3 4 3 4 4 4 4 3 3 2 2
8 8 9 9 8 8 7 6 7 6 6 6 5 5 5 5 5 5 4 3 3 3 4 3 3 2 2 2 2 2 3 3 4 4 4 4 4 4 4 4 3 3 3
8 8 8 8 8 8 7 7 6 6 5 5 5 6 6 5 5 4 4 4 4 4 4 3 3 3 2 2 2 2 2 2 3 3 4 4 4 4 4 5 4 4 3
9 8 8 8 7 7 7 7 6 6 5 5 5 6 6 6 5 5 5 5 5 4 4 3 3 2 2 2 1 1 2 2 2 3 3 3 3 4 5 5 5 4 3
9 9 8 7 7 7 6 6 6 6 5 5 5 5 5 5 5 4 4 5 4 3 3 2 1 1 1 0 1 1 2 2 2 3 3 3 3 4 4 4 5 5 4
10 9 8 8 7 6 6 5 5 5 5 5 4 4 5 5 4 4 4 4 4 3 2 1 0 0 1 0 0 1 2 2 2 3 4 4 3 4 4 4 4 5 5
9 9 8 8 7 6 6 5 5 5 5 5 5 5 5 5 4 4 3 3 2 2 1 1 1 0 1 0 1 1 2 3 3 3 4 4 3 4 4 4 4 4 5
9 9 8 8 8 8 7 5 5 5 5 4 5 4 4 3 3 3 2 2 1 1 1 1 1 1 1 1 1 2 3 3 3 4 4 3 4 4 5 5 5 5 5
9 10 9 8 8 8 8 7 6 5 5 4 4 3 3 3 3 2 2 2 1 0 0 1 1 2 2 2 2 3 3 4 4 4 4 4 4 5 5 5 5 6 6
9 9 9 9 8 8 8 8 7 6 5 4 3 3 2 2 2 2 1 1 0 1 1 2 2 2 3 3 3 3 4 5 4 5 5 5 5 5 5 5 6 6 6
9 9 9 8 8 9 8 8 7 6 5 4 3 3 2 2 1 1 1 0 0 1 2 3 3 3 3 3 4 4 4 5 5 6 6 6 6 5 6 6 6 6 7
9 8 8 9 9 8 8 7 7 6 6 5 4 3 3 2 1 1 0 1 1 2 2 3 3 3 3 4 4 5 5 6 6 7 7 7 6 6 6 6 6 7 7
9 9 9 9 9 8 8 8 7 7 7 6 5 5 3 2 2 1 1 1 2 2 3 3 4 4 4 5 5 5 5 6 6 6 6 7 6 6 6 6 7 7 7
8 9 8 8 8 9 9 8 8 8 7 7 6 5 4 4 2 1 1 2 3 3 4 4 4 4 5 5 5 5 5 5 5 5 6 6 6 6 7 7 7 7 7
8 7 7 7 7 8 8 8 8 8 8 7 6 5 5 4 3 2 2 2 3 4 4 4 4 5 5 5 5 6 6 6 5 6 7 7 7 7 7 7 8 8 8
6 6 6 6 6 6 7 7 7 7 7 6 6 5 5 4 4 3 3 3 4 4 4 4 4 5 5 6 7 7 7 7 7 7 7 7 8 9 8 8 8 9 10
6 5 5 4 5 5 5 6 6 6 6 6 5 4 5 5 4 4 4 4 4 4 4 4 4 5 6 6 7 7 7 8 8 8 8 8 8 9 9 9 10 11 11
5 5 4 4 4 5 5 6 6 6 6 6 5 4 5 5 4 4 5 5 5 6 6 6 6 6 7 7 7 8 8 9 9 9 8 8 8 9 10 11 11 12 12
5 4 3 3 4 5 5 5 6 6 6 6 6 6 5 5 6 5 6 6 6 6 7 7 8 8 8 8 8 9 10 10 9 9 9 9 9 10 11 12 12 13 13
Wind_Direction
117 121 127 139 137 130 133 134 131 133 133 132 131 139 146 153 150 145 143 145 153 157 165 163 160 158 160 158 156 153 155 156 155 154 153 147 152 149 138 140 135 141 138
107 116 124 134 142 147 151 143 137 138 139 143 141 141 150 157 156 158 154 154 162 165 169 167 164 163 163 158 157 157 159 159 154 156 155 146 148 143 136 141 131 126 125
87 100 113 117 129 142 158 154 149 149 142 144 145 140 146 153 161 165 161 159 164 168 170 170 165 163 164 160 159 159 156 155 148 162 157 156 157 155 143 135 134 122 130
82 89 104 116 110 114 141 153 149 148 148 144 141 141 147 150 156 162 161 161 162 167 168 164 160 161 166 162 160 161 159 164 164 168 168 174 176 173 167 154 156 146 151
81 86 90 103 103 101 114 134 143 145 130 132 135 137 141 145 152 158 159 155 160 164 162 163 166 167 171 169 171 177 175 177 185 182 183 192 196 200 197 195 192 176 177
78 79 81 86 93 99 105 118 128 126 118 116 128 127 128 136 141 149 154 160 167 171 173 172 169 169 174 179 189 199 205 209 204 207 202 213 219 222 221 224 223 197 198
79 77 81 87 90 90 100 110 116 112 112 111 114 116 127 140 146 152 160 169 177 179 181 181 182 180 183 189 203 220 235 243 236 245 245 236 234 236 234 238 247 228 230
84 81 85 89 96 96 99 101 104 103 111 113 112 110 128 140 149 154 160 167 175 184 185 185 186 180 182 192 212 228 241 245 253 257 248 243 243 244 250 248 241 241 238
83 84 84 88 95 100 106 102 101 105 105 107 110 117 123 128 143 153 157 163 162 172 176 162 165 175 180 191 204 215 228 244 257 257 253 255 253 250 256 256 254 242 231
80 84 85 88 91 93 101 103 98 95 100 107 112 117 119 122 130 137 131 122 121 134 139 138 146 151 163 182 197 202 216 239 256 262 267 267 268 262 255 258 250 233 223
78 81 82 83 90 90 91 88 87 92 99 106 111 110 107 109 114 116 113 113 111 118 124 122 130 138 156 158 185 212 242 260 266 271 273 265 260 257 252 245 234 229 238
72 75 76 79 86 89 88 89 93 95 96 98 99 99 99 102 113 114 100 100 109 106 112 106 123 158 150 162 224 233 267 271 277 274 274 264 256 257 254 245 243 243 244
68 67 68 75 81 84 87 91 95 95 102 101 94 97 99 97 99 100 93 95 104 104 102 94 102 133 139 130 308 294 285 278 283 287 285 279 271 265 260 251 245 249 248
67 68 71 75 76 78 87 93 97 97 101 95 95 97 95 95 98 100 96 91 100 101 93 89 111 80 323 321 318 308 293 277 278 286 288 283 279 272 268 258 255 261 263
70 74 77 82 76 73 78 83 93 94 97 93 94 92 91 99 102 98 97 80 82 84 73 81 70 339 325 301 282 286 292 281 288 293 291 286 289 284 275 266 263 263 268
70 74 75 79 75 70 69 72 83 84 85 80 68 77 102 112 108 105 94 70 47 34 357 332 334 325 318 307 297 292 293 289 294 296 292 292 288 287 281 270 271 266 266
66 67 66 70 71 68 69 71 74 75 73 71 67 80 95 113 119 126 109 86 54 346 321 321 326 322 317 309 306 302 293 294 284 292 291 289 284 278 276 275 273 273 269
66 64 63 63 66 67 64 64 63 64 59 57 65 69 75 99 131 138 142 173 291 316 310 311 314 313 310 308 306 304 296 292 287 288 289 290 285 277 275 274 269 269 272
64 62 60 61 63 63 60 60 60 59 55 52 52 52 57 72 107 89 23 348 329 318 311 311 310 305 306 306 304 298 295 297 295 290 287 287 285 279 278 275 270 268 272
58 58 59 59 60 59 58 56 57 56 52 48 49 52 49 45 71 57 355 340 334 317 307 309 305 293 291 297 301 301 296 301 300 294 291 288 282 278 274 271 269 268 269
54 56 63 60 58 56 54 52 52 50 46 46 48 49 48 44 44 16 328 335 335 321 311 311 309 298 289 288 299 302 300 302 300 298 297 286 276 275 274 269 265 269 273
56 59 62 60 56 51 49 47 50 48 43 41 44 47 43 36 34 27 357 344 336 327 318 309 304 301 298 291 297 299 296 298 297 294 294 284 278 275 273 271 267 268 272
44 51 56 57 51 45 42 41 42 40 37 36 40 46 44 36 30 17 6 353 348 343 335 322 312 298 298 294 293 297 294 290 294 295 289 283 277 273 272 270 272 273 276
27 35 44 48 39 36 33 32 33 34 31 27 26 25 23 24 23 12 4 359 353 353 345 337 327 309 298 296 299 299 298 296 297 297 293 285 275 273 268 272 278 278 280
15 20 23 26 24 25 22 17 20 20 15 12 11 6 4 4 360 359 353 347 345 341 336 331 324 318 307 299 298 301 303 303 303 300 296 292 284 282 280 281 284 284 285
3 4 2 6 12 6 7 6 8 6 3 3 2 360 354 352 346 342 338 331 326 326 325 323 322 318 312 305 302 300 301 303 301 299 295 295 289 287 287 285 285 286 285
Height
5884 5883 5883 5883 5883 5883 5884 5884 5885 5885 5885 5885 5886 5886 5886 5886 5887 5887 5888 5889 5890 5891 5892 5893 5893 5894 5895 5896 5897 5898 5898 5898 5899 5898 5898 5898 5898 5899 5898 5898 5898 5898 5898
5884 5884 5884 5884 5883 5884 5884 5884 5885 5885 5886 5886 5886 5886 5886 5887 5888 5888 5889 5890 5891 5892 5893 5893 5894 5895 5896 5897 5897 5898 5898 5899 5899 5899 5899 5899 5899 5899 5899 5898 5898 5898 5898
5884 5884 5884 5884 5884 5884 5884 5884 5885 5885 5886 5886 5886 5886 5886 5887 5888 5889 5890 5891 5892 5893 5893 5894 5895 5896 5897 5897 5898 5898 5899 5899 5899 5899 5899 5899 5899 5899 5899 5899 5899 5898 5898
5885 5885 5885 5884 5884 5883 5883 5884 5885 5886 5886 5886 5886 5886 5887 5888 5888 5889 5890 5891 5892 5893 5894 5894 5895 5896 5897 5897 5898 5898 5899 5899 5899 5899 5899 5899 5900 5900 5899 5899 5899 5898 5898
5886 5886 5885 5885 5884 5884 5883 5884 5885 5886 5887 5887 5887 5887 5888 5888 5889 5890 5891 5892 5893 5893 5894 5895 5896 5897 5897 5897 5898 5898 5898 5898 5899 5899 5899 5899 5899 5899 5899 5899 5898 5898 5898
5887 5887 5887 5886 5886 5885 5885 5885 5886 5887 5887 5888 5888 5888 5889 5889 5890 5891 5892 5893 5893 5894 5894 5895 5896 5897 5897 5897 5898 5898 5898 5898 5899 5899 5899 5899 5899 5899 5899 5899 5898 5898 5898
5889 5888 5888 5888 5888 5887 5887 5887 5888 5888 5888 5889 5889 5889 5890 5891 5891 5892 5893 5893 5894 5894 5895 5895 5896 5897 5897 5897 5898 5898 5898 5898 5899 5899 5899 5899 5899 5899 5898 5898 5898 5897 5897
5890 5890 5890 5890 5889 5889 5889 5889 5890 5890 5890 5890 5891 5891 5891 5892 5892 5893 5893 5893 5893 5893 5894 5895 5896 5897 5897 5897 5897 5898 5898 5898 5898 5898 5898 5898 5898 5898 5898 5897 5897 5897 5896
5891 5891 5891 5891 5891 5891 5891 5891 5891 5892 5892 5892 5892 5892 5893 5893 5893 5894 5894 5894 5893 5893 5894 5895 5897 5897 5898 5898 5898 5897 5897 5898 5897 5898 5898 5898 5897 5897 5897 5897 5896 5896 5896
5893 5892 5892 5892 5892 5892 5892 5892 5893 5893 5893 5893 5894 5894 5894 5894 5894 5894 5894 5894 5893 5893 5895 5896 5897 5897 5897 5897 5897 5897 5897 5897 5897 5897 5897 5896 5896 5896 5896 5896 5895 5895 5894
5894 5894 5893 5893 5893 5893 5894 5893 5894 5894 5894 5894 5895 5895 5895 5895 5895 5895 5895 5895 5895 5895 5896 5897 5897 5897 5897 5897 5897 5897 5897 5897 5897 5896 5896 5896 5895 5895 5895 5895 5894 5894 5894
5896 5895 5895 5894 5894 5894 5895 5895 5895 5895 5895 5895 5895 5895 5895 5896 5896 5896 5896 5896 5896 5896 5897 5897 5897 5897 5897 5896 5896 5896 5896 5896 5896 5896 5895 5895 5894 5894 5894 5894 5893 5893 5893
5897 5896 5896 5896 5895 5895 5895 5895 5896 5896 5896 5896 5896 5896 5896 5896 5896 5896 5896 5896 5897 5897 5897 5897 5897 5897 5896 5897 5896 5896 5896 5896 5895 5895 5895 5894 5893 5893 5893 5893 5893 5893 5893
5898 5898 5897 5897 5897 5896 5896 5896 5896 5896 5896 5896 5896 5897 5897 5897 5897 5897 5897 5897 5897 5897 5897 5897 5897 5897 5896 5896 5896 5896 5895 5895 5895 5894 5894 5893 5893 5892 5892 5892 5892 5891 5891
5900 5899 5898 5898 5898 5897 5897 5897 5897 5897 5897 5897 5897 5896 5897 5897 5897 5897 5897 5897 5897 5897 5897 5897 5897 5896 5896 5896 5896 5895 5895 5895 5894 5894 5893 5892 5892 5891 5891 5891 5891 5890 5890
5901 5900 5900 5899 5899 5898 5898 5897 5897 5897 5897 5897 5896 5896 5896 5896 5896 5897 5897 5896 5897 5897 5897 5897 5896 5896 5896 5895 5895 5895 5894 5894 5893 5892 5892 5891 5891 5890 5890 5889 5889 5889 5889
5902 5901 5901 5900 5900 5900 5899 5898 5898 5898 5897 5897 5896 5895 5895 5896 5896 5896 5896 5896 5896 5896 5896 5896 5895 5895 5895 5895 5894 5894 5893 5893 5892 5891 5891 5890 5889 5888 5888 5888 5887 5887 5887
5903 5903 5902 5902 5901 5900 5900 5899 5899 5898 5898 5897 5896 5895 5894 5894 5895 5895 5896 5896 5895 5895 5895 5895 5895 5894 5894 5894 5893 5893 5892 5892 5891 5890 5889 5888 5887 5886 5886 5885 5885 5885 5885
5905 5904 5903 5903 5902 5901 5901 5900 5899 5899 5898 5897 5896 5895 5894 5894 5894 5895 5895 5895 5895 5894 5894 5894 5894 5893 5893 5893 5892 5891 5891 5890 5889 5888 5887 5886 5885 5884 5884 5884 5883 5883 5883
5906 5905 5905 5904 5903 5902 5902 5901 5900 5899 5898 5897 5896 5895 5894 5894 5894 5894 5895 5894 5894 5893 5893 5893 5892 5892 5892 5892 5891 5890 5889 5889 5888 5887 5886 5884 5883 5883 5882 5882 5882 5881 5881
5906 5906 5906 5905 5904 5904 5903 5902 5901 5900 5899 5898 5897 5896 5895 5894 5894 5894 5894 5894 5893 5892 5892 5891 5891 5891 5890 5890 5890 5889 5888 5887 5886 5885 5884 5883 5882 5881 5881 5880 5880 5879 5879
5907 5907 5906 5906 5905 5905 5904 5903 5902 5901 5900 5899 5898 5897 5896 5895 5895 5894 5894 5893 5892 5891 5891 5890 5890 5890 5889 5888 5888 5887 5886 5885 5884 5883 5882 5881 5880 5880 5879 5879 5878 5877 5877
5908 5907 5907 5906 5906 5905 5905 5903 5902 5901 5900 5899 5899 5898 5897 5896 5895 5894 5893 5892 5891 5891 5890 5889 5889 5888 5887 5887 5886 5885 5884 5883 5882 5882 5880 5879 5878 5877 5877 5876 5876 5875 5874
5908 5907 5907 5906 5906 5905 5905 5904 5903 5902 5901 5900 5899 5898 5897 5896 5895 5894 5893 5892 5891 5890 5889 5888 5888 5887 5886 5885 5884 5883 5883 5881 5880 5879 5878 5877 5876 5875 5875 5874 5873 5871 5870
5908 5907 5907 5906 5906 5905 5904 5904 5903 5902 5901 5900 5899 5897 5897 5896 5894 5893 5892 5891 5890 5889 5888 5887 5886 5885 5884 5883 5882 5881 5880 5879 5878 5877 5876 5874 5873 5872 5871 5870 5869 5868 5867
5907 5907 5906 5906 5905 5904 5904 5903 5902 5901 5900 5899 5898 5897 5896 5895 5894 5892 5891 5890 5889 5888 5887 5886 5885 5883 5882 5881 5880 5879 5878 5877 5875 5874 5873 5872 5870 5869 5868 5867 5866 5865 5864